EW9530 Weather Reports


Display with metric or nautical units.
time (UTC)temp
F
wind
direction
speed
MPH
gust
MPH
rain 1hr
in
rain 24hr
in
rain mn
in
humidity
%
barometer
mb
20260507191652 61 136 0.0 3.0 0.00 0.00 0.00 76 1014.5
20260507184650 62 119 1.0 4.0 0.00 0.00 0.00 73 1014.2
20260507183139 62 153 2.0 7.0 0.00 0.00 0.00 72 1014.0
20260507181652 62 115 1.0 9.0 0.00 0.00 0.00 72 1013.7
20260507180149 63 128 3.0 11.0 0.00 0.00 0.00 70 1013.6
20260507174650 64 130 2.0 10.0 0.00 0.00 0.00 68 1013.3
20260507173156 65 101 2.0 9.0 0.00 0.00 0.00 65 1013.3
20260507171652 66 107 5.0 13.0 0.00 0.00 0.00 64 1013.1
20260507170018 66 73 5.0 12.0 0.00 0.00 0.00 64 1013.0
20260507164652 66 185 2.0 11.0 0.00 0.00 0.00 65 1012.9
20260507163140 66 123 5.0 14.0 0.00 0.00 0.00 63 1012.8
20260507161652 67 122 4.0 11.0 0.00 0.00 0.00 62 1012.7
20260507160148 67 133 6.0 15.0 0.00 0.00 0.00 61 1012.7
20260507154652 67 134 5.0 20.0 0.00 0.00 0.00 63 1012.8
20260507153155 67 118 8.0 13.0 0.00 0.00 0.00 62 1012.7
20260507151652 66 198 4.0 14.0 0.00 0.00 0.00 65 1012.6
20260507150151 67 165 8.0 17.0 0.00 0.00 0.00 63 1012.7
20260507144651 66 173 3.0 10.0 0.00 0.00 0.00 65 1012.8
20260507143138 67 96 6.0 11.0 0.00 0.00 0.00 64 1012.9
20260507141653 66 169 3.0 9.0 0.00 0.00 0.00 64 1013.2
20260507134652 67 55 2.0 12.0 0.00 0.00 0.00 64 1013.3
20260507133138 67 130 5.0 12.0 0.00 0.00 0.00 63 1013.6
20260507131652 69 163 8.0 15.0 0.00 0.00 0.00 60 1013.4
20260507130149 68 130 7.0 14.0 0.00 0.00 0.00 62 1013.7
20260507124652 69 128 5.0 9.0 0.00 0.00 0.00 58 1013.8
20260507123157 69 243 1.0 12.0 0.00 0.00 0.00 57 1013.7
20260507121509 70 138 4.0 10.0 0.00 0.00 0.00 56 1013.9
20260507120150 69 109 2.0 9.0 0.00 0.00 0.00 57 1013.9
20260507114651 69 112 6.0 10.0 0.00 0.00 0.00 56 1014.0
20260507113140 68 80 1.0 12.0 0.00 0.00 0.00 59 1014.3
20260507111651 68 145 1.0 6.0 0.00 0.00 0.00 58 1014.5
20260507104653 67 140 5.0 10.0 0.00 0.00 0.00 61 1014.9
20260507103137 68 114 1.0 6.0 0.00 0.00 0.00 59 1015.1
20260507101652 66 132 0.0 9.0 0.00 0.00 0.00 63 1015.3
20260507094651 65 146 2.0 9.0 0.00 0.00 0.00 63 1015.4
20260507093156 65 167 3.0 8.0 0.00 0.00 0.00 67 1015.7
20260507091646 64 144 3.0 8.0 0.00 0.00 0.00 70 1015.6
20260507084656 62 213 2.0 7.0 0.00 0.00 0.00 73 1015.5
20260507083157 60 276 0.0 2.0 0.00 0.00 0.00 73 1015.8
20260507081651 60 45 0.0 0.0 0.00 0.00 0.00 72 1015.8
20260507080200 58 5 0.0 2.0 0.00 0.00 0.00 75 1016.0
20260507074650 57 37 0.0 2.0 0.00 0.00 0.00 78 1016.3
20260507073159 56 39 0.0 3.0 0.00 0.00 0.00 81 1016.4
20260507071652 54 28 1.0 3.0 0.00 0.00 0.00 84 1016.4
20260507064653 51 34 2.0 4.0 0.00 0.00 0.00 89 1016.3
20260507063138 50 70 2.0 5.0 0.00 0.00 0.00 91 1016.3
20260507061652 49 57 2.0 5.0 0.00 0.00 0.00 92 1016.0
20260507054654 47 55 0.0 0.0 0.00 0.00 0.00 93 1016.1
20260507053154 46 55 0.0 0.0 0.00 0.00 0.00 93 1016.0
20260507051653 45 54 0.0 0.0 0.00 0.00 0.00 93 1015.8
20260507050043 45 54 0.0 4.0 0.00 0.00 0.00 93 1015.7
20260507044652 45 32 0.0 0.0 0.00 0.00 0.00 93 1015.6
20260507043157 45 32 0.0 0.0 0.00 0.00 0.00 93 1015.6
20260507041651 45 32 0.0 0.0 0.00 0.00 0.00 92 1015.6
20260507040148 46 32 0.0 0.0 0.00 0.00 0.00 92 1015.7
20260507034652 46 32 0.0 0.0 0.00 0.00 0.00 92 1015.5
20260507033156 46 32 0.0 0.0 0.00 0.00 0.00 92 1015.6
20260507031652 47 32 0.0 0.0 0.00 0.00 0.00 92 1015.6
20260507030149 47 32 0.0 0.0 0.00 0.00 0.00 92 1015.5
20260507024654 47 32 0.0 0.0 0.00 0.00 0.00 92 1015.5
20260507023159 47 32 0.0 2.0 0.00 0.00 0.00 91 1015.4
20260507021655 48 32 0.0 3.0 0.00 0.00 0.00 91 1015.3
20260507020152 48 32 0.0 0.0 0.00 0.00 0.00 91 1015.4
20260507014654 48 32 0.0 0.0 0.00 0.00 0.00 90 1015.6
20260507013156 49 32 0.0 0.0 0.00 0.00 0.00 90 1015.6
20260507011516 49 32 0.0 0.0 0.00 0.00 0.00 90 1015.5
20260507010148 49 32 0.0 0.0 0.00 0.00 0.00 89 1015.5
20260507004652 50 40 0.0 3.0 0.00 0.00 0.00 89 1015.6
20260507003137 50 31 0.0 3.0 0.00 0.00 0.00 88 1015.6
20260507001651 51 36 1.0 4.0 0.00 0.00 0.00 88 1015.7
20260506234651 52 43 1.0 5.0 0.00 0.00 0.00 86 1015.7
20260506233156 52 24 1.0 4.0 0.00 0.00 0.00 86 1015.7
20260506231651 52 28 2.0 6.0 0.00 0.00 0.00 85 1015.6
20260506230148 53 49 0.0 4.0 0.00 0.00 0.00 84 1015.5
20260506224650 54 55 2.0 4.0 0.00 0.00 0.00 81 1015.5
20260506223157 56 153 0.0 0.0 0.00 0.00 0.00 79 1015.4
20260506221650 57 153 0.0 0.0 0.00 0.00 0.00 78 1015.3
20260506220003 57 153 0.0 0.0 0.00 0.00 0.00 78 1015.2
20260506214651 57 153 0.0 2.0 0.00 0.00 0.00 77 1015.2
20260506213138 58 137 0.0 5.0 0.00 0.00 0.00 76 1015.1
20260506211649 58 173 0.0 4.0 0.00 0.00 0.00 74 1015.0
20260506204650 58 198 2.0 5.0 0.00 0.00 0.00 72 1014.7
20260506203155 59 204 1.0 6.0 0.00 0.00 0.00 69 1014.5
20260506201650 59 145 1.0 6.0 0.00 0.00 0.00 67 1014.3
20260506194650 60 197 2.0 8.0 0.00 0.00 0.00 63 1013.9
20260506193137 61 117 3.0 7.0 0.00 0.00 0.00 64 1013.6